Regional Weather Roundup
Issued by NWS Huntsville, AL

Home | Current Version | Previous Version | Text Only | Print | Product List | Glossary On
Versions: 1 2 3 4 5 6 7 8 9 10 11 12 13 14 15 16 17 18 19 20 21 22 23 24 25 26 27 28 29 30 31 32 33 34 35 36 37 38 39 40 41 42 43 44 45 46 47 48 49 50
000
ASUS44 KHUN 280410
RWRHUN

WEATHER ROUNDUP FOR THE TENNESSEE VALLEY
NATIONAL WEATHER SERVICE HUNTSVILLE AL
1100 PM CDT SUN JUL 27 2014

ALZ001>004-280500-
NORTHWEST ALABAMA

CITY           SKY/WX    TMP DP  RH WIND       PRES   REMARKS
COURTLAND HCN    N/A     82 N/A N/A SW7         N/A
RUSSELLVILLE     N/A     81 N/A N/A MISG        N/A
SHOALS AIRPORT MOCLDY    83  75  77 W12       29.96S HX  90
SHOALS TVA RES   N/A     82 N/A N/A MISG        N/A
$$

ALZ005>007-016-280500-
NORTH CENTRAL ALABAMA

CITY           SKY/WX    TMP DP  RH WIND       PRES   REMARKS
DECATUR AP     MOCLDY    83  75  77 SW10G18   29.95F HX  90
HUNTSVILLE AP  MOCLDY    82  74  76 SW6       29.95F
HUN NWS/UAH      N/A     82  72  70 SW5         N/A
MERIDIANVILLE  MOCLDY    81  70  69 SW9       29.95S
VINEMONT AP    FAIR      80  74  82 SW3       30.00F
$$

ALZ008>010-280500-
NORTHEAST ALABAMA

CITY           SKY/WX    TMP DP  RH WIND       PRES   REMARKS
ALBERTVILLE    MOCLDY    81  77  89 W8        29.97F
FORT PAYNE     PTCLDY    77  70  78 CALM      29.96S
SCOTTSBORO AP  MOCLDY    82  73  74 SW7       29.95S
SCOTTSBORO HCN   N/A     82 N/A N/A MISG        N/A
VALLEY HEAD      N/A     73 N/A N/A MISG        N/A
$$

TNZ076-096-097-280500-
SOUTHEASTERN MIDDLE TENNESSEE

CITY           SKY/WX    TMP DP  RH WIND       PRES   REMARKS
FAYETTEVILLE   MOCLDY    79  73  83 W5        29.96R
TULLAHOMA      PTCLDY    81  73  78 SW9       29.95F
WINCHESTER     PTCLDY    82  73  74 W7        29.95R
$$

...SURROUNDING SITES...

CITY           SKY/WX    TMP DP  RH WIND       PRES   REMARKS
ATLANTA        PTCLDY    83  72  69 W10       29.96F
ANNISTON       CLEAR     79  72  79 W5        29.97F
BIRMINGHAM     PTCLDY    85  72  65 W13       30.00F HX  91
CHATTANOOGA    MOCLDY    85  71  63 W9G18     29.92S HX  90
CORINTH        FAIR      82  75  78 SW6       29.94S
DALTON         MOCLDY    82  72  69 CALM      29.94S
GADSDEN        PTCLDY    79  72  78 W6        29.96S
GOLDEN TRNGL   PTCLDY    81  73  78 W3        29.99F
HALEYVILLE     MOCLDY    80  76  87 W6        30.01S
JACKSON TN     CLEAR     82  76  81 W7        29.93S
LAWRENCEBURG   FAIR      81  79  94 W7        29.94  HX  90
LEWISBURG      FAIR      83  75  76 W6        29.92S HX  90
MEMPHIS        PTCLDY    85  77  77 W3        29.95S HX  95
NASHVILLE      CLOUDY    75  73  93 CALM      29.91R
ROME           PTCLDY    85  71  63 W9        29.93F HX  90
SAVANNAH       PTCLDY    82  81  97 SW5       29.94S HX  94
TUPELO         PTCLDY    82  76  81 W5        29.96S
TUSCALOOSA     MOCLDY    81  74  79 W3        29.98S
$$

...GULF COAST WEATHER...

CITY           SKY/WX    TMP DP  RH WIND       PRES   REMARKS
GULFPORT       PTCLDY    86  77  74 CALM      30.04S HX  97
PASCAGOULA     PTCLDY    82  78  88 SW3       30.04S HX  91
MOBILE         PTCLDY    80  78  94 SW8       30.05S
GULF SHORES      N/A     82  77  84 W7        30.04S HX  90
PENSACOLA      CLEAR     82  78  88 SW5       30.04S HX  91
DESTIN         CLEAR     85  79  82 VRB5      30.04S HX  98
PANAMA CITY    CLEAR     83  77  81 W10       30.06S HX  92
APPALACHICOLA  CLEAR     79  77  94 W8        30.05S
$$




USA.gov is the U.S. government's official web portal to all federal, state and local government web resources and services.